Weather in Pustyn

Russia / Penza Oblast     52°57′22″N   44°15′38″E
temp.,
°C
wind,
m/s
gust,
m/s
humid.,
%
clouds,
%
prec.,
mm/h
press.,
hPa
HPBL,
m
4 march, thu
thu400:00−6w5119681 0.0 1012270
03:00−4wsw6129690 0.1 1010470
06:00−2wsw71395100 0.2 1008772
09:00−2wsw91594100 0.4 1006804
12:000wsw101791100 0.1 1004822
15:000wsw101688100 0.3 1003913
18:000wsw81489100 0.0 10021026
21:00−1wsw61295100 0.2 1002745
5 march, fri
fri500:00−1wsw61293100 0.1 1001550
03:00−2wsw51196100 0.2 1001419
06:00−2w51097100 0.6 1002547
09:00−3n4596100 1.3 1004320
12:00−2nw459396 0.3 1007489
15:00−3nw369083 0.4 1009361
18:00−8wnw23920 0.0 101121
21:00−9wnw349323 0.0 101443
6 march, sat
sat600:00−10wnw349470 0.0 101553
03:00−11wnw339483 0.0 101631
06:00−12nw2293100 0.0 101621
09:00−10nne2294100 0.0 101772
12:00−8ne2490100 0.0 1016227
15:00−7ne2392100 0.0 1015235
18:00−12ne238936 0.0 101521
21:00−15ene117621 0.0 101620
7 march, sun
sun700:00−15wsw117351 0.0 101520
03:00−13sw348769 0.0 101667
06:00−13sw479794 0.1 1016127
09:00−11wsw599696 0.1 1015270
12:00−8sw7128578 0.0 1012681
15:00−6sw8148589 0.0 1010903
18:00−6sw91882100 0.0 10061092
21:00−5sw111893100 1.1 10031080
8 march, mon
mon800:00−4wnw71285100 1.4 1003850
03:00−9w3593100 1.4 100489
06:00−11sw348768 0.0 100451
09:00−7ssw6109484 0.0 1002412
12:00−2wsw71296100 1.9 999894
15:00−6wnw12178299 3.0 10001184
18:00−10w8168258 0.0 1005896
21:00−10w8168862 0.0 1009732